Time,TemperatureF,DewpointF,PressureIn,WindDirection,WindDirectionDegrees,WindSpeedMPH,WindSpeedGustMPH,Humidity,HourlyPrecipIn,Conditions,Clouds,dailyrainin,SoftwareType,DateUTC
2013-04-29 00:07:00,61.2,53.9,29.71,NW,315,0.0,-999.0,77,-99.99,,,0.00,Acu-Link.com,2013-04-29 07:07:00,
2013-04-29 00:22:00,60.6,54.4,29.72,ESE,112,0.0,-999.0,80,-99.99,,,0.00,Acu-Link.com,2013-04-29 07:22:00,
2013-04-29 00:38:00,60.3,54.1,29.71,ESE,112,0.0,-999.0,80,-99.99,,,0.00,Acu-Link.com,2013-04-29 07:38:00,
2013-04-29 00:53:00,59.9,53.7,29.71,SSW,202,0.0,-999.0,80,-99.99,,,0.00,Acu-Link.com,2013-04-29 07:53:00,
2013-04-29 01:09:00,59.5,53.7,29.71,ESE,112,0.0,-999.0,81,-99.99,,,0.00,Acu-Link.com,2013-04-29 08:09:00,
2013-04-29 01:24:00,59.4,53.6,29.71,NW,315,0.0,-999.0,81,-99.99,,,0.00,Acu-Link.com,2013-04-29 08:24:00,
2013-04-29 01:39:00,58.8,53.3,29.71,ESE,112,0.0,-999.0,82,-99.99,,,0.00,Acu-Link.com,2013-04-29 08:39:00,
2013-04-29 01:54:00,58.5,53.4,29.71,ESE,112,0.0,-999.0,83,-99.99,,,0.00,Acu-Link.com,2013-04-29 08:54:00,
2013-04-29 02:09:00,57.9,52.8,29.70,South,180,0.0,-999.0,83,-99.99,,,0.00,Acu-Link.com,2013-04-29 09:09:00,
2013-04-29 02:24:00,57.4,53.2,29.71,WNW,292,0.0,-999.0,86,-99.99,,,0.00,Acu-Link.com,2013-04-29 09:24:00,
2013-04-29 02:40:00,57.6,53.4,29.71,ESE,112,0.0,-999.0,86,-99.99,,,0.00,Acu-Link.com,2013-04-29 09:40:00,
2013-04-29 02:55:00,57.4,52.9,29.71,ESE,112,0.0,-999.0,85,-99.99,,,0.00,Acu-Link.com,2013-04-29 09:55:00,
2013-04-29 03:10:00,57.0,53.2,29.71,SE,135,0.0,-999.0,87,-99.99,,,0.00,Acu-Link.com,2013-04-29 10:10:00,
2013-04-29 03:26:00,56.5,52.7,29.70,WNW,292,0.0,-999.0,87,-99.99,,,0.00,Acu-Link.com,2013-04-29 10:26:00,
2013-04-29 03:41:00,55.9,52.4,29.70,SSE,157,0.0,-999.0,88,-99.99,,,0.00,Acu-Link.com,2013-04-29 10:41:00,
2013-04-29 03:56:00,55.6,52.7,29.70,WNW,292,0.0,-999.0,90,-99.99,,,0.00,Acu-Link.com,2013-04-29 10:56:00,
2013-04-29 04:11:00,55.2,52.6,29.70,NE,45,0.0,-999.0,91,-99.99,,,0.00,Acu-Link.com,2013-04-29 11:11:00,
2013-04-29 04:27:00,54.9,52.3,29.70,SSE,157,0.0,-999.0,91,-99.99,,,0.00,Acu-Link.com,2013-04-29 11:27:00,
2013-04-29 04:42:00,54.7,52.4,29.70,WNW,292,2.7,-999.0,92,-99.99,,,0.00,Acu-Link.com,2013-04-29 11:42:00,
2013-04-29 04:57:00,54.3,52.0,29.70,ESE,112,0.0,-999.0,92,-99.99,,,0.00,Acu-Link.com,2013-04-29 11:57:00,
2013-04-29 05:13:00,54.1,52.1,29.70,SE,135,0.0,-999.0,93,-99.99,,,0.00,Acu-Link.com,2013-04-29 12:13:00,
2013-04-29 05:28:00,53.8,51.5,29.70,South,180,0.0,-999.0,92,-99.99,,,0.00,Acu-Link.com,2013-04-29 12:28:00,
2013-04-29 05:43:00,53.4,51.7,29.70,SSE,157,0.0,-999.0,94,-99.99,,,0.00,Acu-Link.com,2013-04-29 12:43:00,
2013-04-29 05:59:00,53.1,51.4,29.71,ENE,67,0.0,-999.0,94,-99.99,,,0.00,Acu-Link.com,2013-04-29 12:59:00,
2013-04-29 06:14:00,52.9,51.5,29.71,ESE,112,2.2,-999.0,95,-99.99,,,0.00,Acu-Link.com,2013-04-29 13:14:00,
2013-04-29 06:29:00,52.9,51.5,29.71,SSE,157,0.0,-999.0,95,-99.99,,,0.00,Acu-Link.com,2013-04-29 13:29:00,
2013-04-29 06:44:00,52.7,51.3,29.72,SE,135,0.0,-999.0,95,-99.99,,,0.00,Acu-Link.com,2013-04-29 13:44:00,
2013-04-29 07:00:00,52.9,51.8,29.72,ESE,112,0.0,-999.0,96,-99.99,,,0.00,Acu-Link.com,2013-04-29 14:00:00,
2013-04-29 07:15:00,53.2,52.1,29.72,ESE,112,0.0,-999.0,96,-99.99,,,0.00,Acu-Link.com,2013-04-29 14:15:00,
2013-04-29 07:30:00,54.1,53.3,29.72,ESE,112,0.0,-999.0,97,-99.99,,,0.00,Acu-Link.com,2013-04-29 14:30:00,
2013-04-29 07:46:00,54.5,53.7,29.73,SSW,202,0.0,-999.0,97,-99.99,,,0.00,Acu-Link.com,2013-04-29 14:46:00,
2013-04-29 08:01:00,55.4,54.8,29.74,WSW,247,0.0,-999.0,98,-99.99,,,0.00,Acu-Link.com,2013-04-29 15:01:00,
2013-04-29 08:16:00,56.7,55.6,29.73,SSW,202,0.0,-999.0,96,-99.99,,,0.00,Acu-Link.com,2013-04-29 15:16:00,
2013-04-29 08:32:00,58.6,55.7,29.73,East,90,0.0,-999.0,90,-99.99,,,0.00,Acu-Link.com,2013-04-29 15:32:00,
2013-04-29 08:47:00,60.8,56.6,29.73,South,180,0.0,-999.0,86,-99.99,,,0.00,Acu-Link.com,2013-04-29 15:47:00,
2013-04-29 09:02:00,64.2,57.5,29.73,South,180,0.0,-999.0,79,-99.99,,,0.00,Acu-Link.com,2013-04-29 16:02:00,
2013-04-29 09:17:00,66.4,58.2,29.73,West,270,0.0,-999.0,75,-99.99,,,0.00,Acu-Link.com,2013-04-29 16:17:00,
2013-04-29 09:33:00,67.5,57.4,29.73,SSW,202,0.0,-999.0,70,-99.99,,,0.00,Acu-Link.com,2013-04-29 16:33:00,
2013-04-29 09:48:00,68.4,54.4,29.73,SW,225,0.0,-999.0,61,-99.99,,,0.00,Acu-Link.com,2013-04-29 16:48:00,
2013-04-29 10:03:00,71.4,50.7,29.73,SE,135,0.0,-999.0,48,-99.99,,,0.00,Acu-Link.com,2013-04-29 17:03:00,
2013-04-29 10:19:00,73.8,48.0,29.73,ESE,112,0.0,-999.0,40,-99.99,,,0.00,Acu-Link.com,2013-04-29 17:19:00,
2013-04-29 10:34:00,76.3,46.6,29.73,ESE,112,2.2,-999.0,35,-99.99,,,0.00,Acu-Link.com,2013-04-29 17:34:00,
2013-04-29 10:49:00,77.0,45.7,29.72,SSE,157,0.0,-999.0,33,-99.99,,,0.00,Acu-Link.com,2013-04-29 17:49:00,
2013-04-29 11:04:00,77.9,46.5,29.72,SSE,157,2.2,-999.0,33,-99.99,,,0.00,Acu-Link.com,2013-04-29 18:04:00,
2013-04-29 11:20:00,79.2,45.9,29.72,ESE,112,0.0,-999.0,31,-99.99,,,0.00,Acu-Link.com,2013-04-29 18:20:00,
2013-04-29 11:35:00,81.1,45.8,29.72,ESE,112,1.7,-999.0,29,-99.99,,,0.00,Acu-Link.com,2013-04-29 18:35:00,
2013-04-29 11:50:00,85.8,48.9,29.72,NNW,337,3.2,-999.0,28,-99.99,,,0.00,Acu-Link.com,2013-04-29 18:50:00,
2013-04-29 12:05:00,83.5,48.8,29.71,SSE,157,1.1,-999.0,30,-99.99,,,0.00,Acu-Link.com,2013-04-29 19:05:00,
2013-04-29 12:21:00,84.7,48.9,29.70,SE,135,3.7,-999.0,29,-99.99,,,0.00,Acu-Link.com,2013-04-29 19:21:00,
2013-04-29 12:36:00,88.5,49.2,29.69,WNW,292,0.0,-999.0,26,-99.99,,,0.00,Acu-Link.com,2013-04-29 19:36:00,
2013-04-29 12:51:00,85.5,49.6,29.68,SE,135,3.2,-999.0,29,-99.99,,,0.00,Acu-Link.com,2013-04-29 19:51:00,
2013-04-29 13:07:00,88.7,48.3,29.68,SE,135,2.2,-999.0,25,-99.99,,,0.00,Acu-Link.com,2013-04-29 20:07:00,
2013-04-29 13:22:00,89.2,48.7,29.68,ENE,67,1.7,-999.0,25,-99.99,,,0.00,Acu-Link.com,2013-04-29 20:22:00,
2013-04-29 13:37:00,88.2,45.7,29.67,SSE,157,2.2,-999.0,23,-99.99,,,0.00,Acu-Link.com,2013-04-29 20:37:00,
2013-04-29 13:52:00,91.6,47.3,29.67,ESE,112,1.1,-999.0,22,-99.99,,,0.00,Acu-Link.com,2013-04-29 20:52:00,
2013-04-29 14:08:00,88.3,45.8,29.65,SSE,157,2.7,-999.0,23,-99.99,,,0.00,Acu-Link.com,2013-04-29 21:08:00,
2013-04-29 14:23:00,90.1,48.4,29.65,WNW,292,1.1,-999.0,24,-99.99,,,0.00,Acu-Link.com,2013-04-29 21:23:00,
2013-04-29 14:38:00,91.4,48.4,29.64,SSW,202,1.7,-999.0,23,-99.99,,,0.00,Acu-Link.com,2013-04-29 21:38:00,
2013-04-29 14:53:00,90.9,49.1,29.64,ESE,112,1.1,-999.0,24,-99.99,,,0.00,Acu-Link.com,2013-04-29 21:53:00,
2013-04-29 15:09:00,95.4,49.2,29.63,WNW,292,1.7,-999.0,21,-99.99,,,0.00,Acu-Link.com,2013-04-29 22:09:00,
2013-04-29 15:24:00,94.5,49.7,29.62,NNE,22,1.7,-999.0,22,-99.99,,,0.00,Acu-Link.com,2013-04-29 22:24:00,
2013-04-29 15:39:00,93.6,51.3,29.62,SSE,157,2.7,-999.0,24,-99.99,,,0.00,Acu-Link.com,2013-04-29 22:39:00,
2013-04-29 15:55:00,92.8,47.1,29.60,SSE,157,2.2,-999.0,21,-99.99,,,0.00,Acu-Link.com,2013-04-29 22:55:00,
2013-04-29 16:10:00,91.0,49.2,29.60,SSE,157,3.2,-999.0,24,-99.99,,,0.00,Acu-Link.com,2013-04-29 23:10:00,
2013-04-29 16:25:00,90.5,49.8,29.59,SE,135,2.7,-999.0,25,-99.99,,,0.00,Acu-Link.com,2013-04-29 23:25:00,
2013-04-29 16:41:00,89.8,49.2,29.59,South,180,1.7,-999.0,25,-99.99,,,0.00,Acu-Link.com,2013-04-29 23:41:00,
2013-04-29 16:56:00,88.7,50.4,29.59,SSW,202,2.2,-999.0,27,-99.99,,,0.00,Acu-Link.com,2013-04-29 23:56:00,
2013-04-29 17:11:00,88.0,48.8,29.59,SSW,202,1.7,-999.0,26,-99.99,,,0.00,Acu-Link.com,2013-04-30 00:11:00,
2013-04-29 17:27:00,86.7,47.7,29.59,West,270,0.0,-999.0,26,-99.99,,,0.00,Acu-Link.com,2013-04-30 00:27:00,
2013-04-29 17:42:00,86.4,47.4,29.59,SSW,202,1.7,-999.0,26,-99.99,,,0.00,Acu-Link.com,2013-04-30 00:42:00,
2013-04-29 17:57:00,85.3,46.5,29.58,WSW,247,1.1,-999.0,26,-99.99,,,0.00,Acu-Link.com,2013-04-30 00:57:00,
2013-04-29 18:12:00,84.4,45.7,29.58,ENE,67,0.0,-999.0,26,-99.99,,,0.00,Acu-Link.com,2013-04-30 01:12:00,
2013-04-29 18:28:00,83.5,47.9,29.57,NE,45,0.0,-999.0,29,-99.99,,,0.00,Acu-Link.com,2013-04-30 01:28:00,
2013-04-29 18:43:00,82.8,49.0,29.57,ESE,112,0.0,-999.0,31,-99.99,,,0.00,Acu-Link.com,2013-04-30 01:43:00,
2013-04-29 18:58:00,81.5,48.8,29.58,West,270,0.0,-999.0,32,-99.99,,,0.00,Acu-Link.com,2013-04-30 01:58:00,
2013-04-29 19:14:00,81.0,50.7,29.57,SSE,157,0.0,-999.0,35,-99.99,,,0.00,Acu-Link.com,2013-04-30 02:14:00,
2013-04-29 19:29:00,78.8,49.6,29.57,ESE,112,0.0,-999.0,36,-99.99,,,0.00,Acu-Link.com,2013-04-30 02:29:00,
2013-04-29 19:44:00,78.1,49.7,29.57,SE,135,0.0,-999.0,37,-99.99,,,0.00,Acu-Link.com,2013-04-30 02:44:00,
2013-04-29 19:59:00,76.8,50.6,29.57,SSE,157,0.0,-999.0,40,-99.99,,,0.00,Acu-Link.com,2013-04-30 02:59:00,
2013-04-29 20:15:00,75.0,51.6,29.57,ESE,112,0.0,-999.0,44,-99.99,,,0.00,Acu-Link.com,2013-04-30 03:15:00,
2013-04-29 20:30:00,73.6,50.9,29.57,ENE,67,0.0,-999.0,45,-99.99,,,0.00,Acu-Link.com,2013-04-30 03:30:00,
2013-04-29 20:45:00,72.7,50.7,29.58,SE,135,0.0,-999.0,46,-99.99,,,0.00,Acu-Link.com,2013-04-30 03:45:00,
2013-04-29 21:00:00,72.0,50.1,29.58,WNW,292,0.0,-999.0,46,-99.99,,,0.00,Acu-Link.com,2013-04-30 04:00:00,
2013-04-29 21:15:00,71.1,50.4,29.59,East,90,0.0,-999.0,48,-99.99,,,0.00,Acu-Link.com,2013-04-30 04:15:00,
2013-04-29 21:31:00,70.0,50.5,29.59,WSW,247,0.0,-999.0,50,-99.99,,,0.00,Acu-Link.com,2013-04-30 04:31:00,
2013-04-29 21:46:00,69.4,50.5,29.60,West,270,0.0,-999.0,51,-99.99,,,0.00,Acu-Link.com,2013-04-30 04:46:00,
2013-04-29 22:01:00,68.9,50.0,29.60,ESE,112,0.0,-999.0,51,-99.99,,,0.00,Acu-Link.com,2013-04-30 05:01:00,
2013-04-29 22:17:00,68.4,50.6,29.61,NE,45,0.0,-999.0,53,-99.99,,,0.00,Acu-Link.com,2013-04-30 05:17:00,
2013-04-29 22:32:00,67.6,50.4,29.60,ESE,112,0.0,-999.0,54,-99.99,,,0.00,Acu-Link.com,2013-04-30 05:32:00,
2013-04-29 22:47:00,66.9,51.2,29.61,ESE,112,0.0,-999.0,57,-99.99,,,0.00,Acu-Link.com,2013-04-30 05:47:00,
2013-04-29 23:02:00,66.2,50.0,29.60,WNW,292,0.0,-999.0,56,-99.99,,,0.00,Acu-Link.com,2013-04-30 06:02:00,
2013-04-29 23:18:00,65.8,49.7,29.60,West,270,0.0,-999.0,56,-99.99,,,0.00,Acu-Link.com,2013-04-30 06:18:00,
2013-04-29 23:33:00,65.7,48.6,29.60,NE,45,0.0,-999.0,54,-99.99,,,0.00,Acu-Link.com,2013-04-30 06:33:00,
2013-04-29 23:48:00,65.5,48.9,29.61,SSE,157,0.0,-999.0,55,-99.99,,,0.00,Acu-Link.com,2013-04-30 06:48:00,